Location: Unspecified
(17.6330°N, 0.0000°E)
Time: 20:49:25
(UTC+00:00)

S-56A Canister/Altair - Pass Details

Date: 04 July 2019
Orbit: 633 x 2499 km, 38.9° (Epoch: 21 August)

Event Time Altitude Azimuth Distance (km) Brightness Sun altitude
Rises 06:42:03 0° 184° (S) 5,431 11.6 15.2°
Reaches altitude 10° 06:47:43 10° 164° (SSE) 4,749 11.6 16.4°
Maximum altitude 06:54:57 16° 131° (SE) 4,534 12.0 18.1°
Drops below altitude 10° 07:02:39 10° 100° (E) 5,156 13.0 19.8°
Sets 07:09:08 0° 81° (E) 6,138 13.6 21.3°
